XGO225 EDXW-EDDH

Flight info

Callsign XGO225
Flight time 0h 33m
Altitude 9000
Route OLDIP1B OLDIP DCT BADOS DCT RENSU DCT BOGMU BOGMU3N
Aircraft P180/L-SBDFGM3RWXY/LB1

Departure

Time 2026-05-05 13:18
Airport Westerland Sylt Airport (EDXW)

Arrival

Time 2026-05-05 13:52
Airport Hamburg Helmut Schmidt Airport (EDDH)
Time Latitude Longitude Altitude Speed Heading
2026-05-05 13:02 54.91192 8.32549 52 ft 0 kts 243°
2026-05-05 13:12 54.91187 8.32548 52 ft 1 kts 170°
2026-05-05 13:12 54.91185 8.32572 50 ft 3 kts 85°
2026-05-05 13:13 54.91187 8.32618 52 ft 6 kts 85°
2026-05-05 13:13 54.91175 8.32683 51 ft 6 kts 129°
2026-05-05 13:13 54.91162 8.32706 48 ft 8 kts 134°
2026-05-05 13:13 54.91129 8.32771 52 ft 7 kts 130°
2026-05-05 13:14 54.91080 8.32867 50 ft 13 kts 132°
2026-05-05 13:14 54.91011 8.33005 50 ft 17 kts 126°
2026-05-05 13:14 54.90913 8.33145 52 ft 20 kts 152°
2026-05-05 13:14 54.90783 8.33216 52 ft 21 kts 174°
2026-05-05 13:15 54.90632 8.33239 52 ft 20 kts 175°
2026-05-05 13:15 54.90505 8.33267 52 ft 17 kts 166°
2026-05-05 13:15 54.90411 8.33347 51 ft 14 kts 147°
2026-05-05 13:15 54.90334 8.33467 52 ft 17 kts 131°
2026-05-05 13:16 54.90272 8.33655 52 ft 19 kts 109°
2026-05-05 13:16 54.90246 8.33891 52 ft 21 kts 98°
2026-05-05 13:16 54.90236 8.34143 52 ft 21 kts 83°
2026-05-05 13:16 54.90258 8.34358 50 ft 15 kts 79°
2026-05-05 13:17 54.90275 8.34530 52 ft 17 kts 81°
2026-05-05 13:17 54.90297 8.34752 52 ft 17 kts 79°
2026-05-05 13:17 54.90315 8.34922 50 ft 15 kts 79°
2026-05-05 13:17 54.90339 8.35083 52 ft 10 kts 58°
2026-05-05 13:18 54.90373 8.35160 50 ft 9 kts 52°
2026-05-05 13:18 54.90440 8.35142 54 ft 20 kts 324°
2026-05-05 13:18 54.90916 8.34552 68 ft 139 kts 326°
2026-05-05 13:18 54.91831 8.33407 970 ft 174 kts 324°
2026-05-05 13:19 54.92847 8.32104 2208 ft 197 kts 326°
2026-05-05 13:19 54.93973 8.30617 3473 ft 207 kts 326°
2026-05-05 13:19 54.95187 8.29058 4518 ft 230 kts 328°
2026-05-05 13:19 54.96546 8.27365 5227 ft 252 kts 327°
2026-05-05 13:20 54.97924 8.25278 5705 ft 270 kts 312°
2026-05-05 13:20 54.98774 8.22375 6508 ft 274 kts 285°
2026-05-05 13:20 54.98770 8.19105 7107 ft 269 kts 259°
2026-05-05 13:20 54.97942 8.16153 7281 ft 278 kts 234°
2026-05-05 13:21 54.96600 8.13758 7579 ft 278 kts 218°
2026-05-05 13:21 54.94786 8.12610 7817 ft 283 kts 189°
2026-05-05 13:21 54.92831 8.12684 8168 ft 282 kts 173°
2026-05-05 13:21 54.90961 8.13751 8422 ft 286 kts 154°
2026-05-05 13:22 54.89444 8.15994 8671 ft 290 kts 132°
2026-05-05 13:22 54.88159 8.18655 8882 ft 292 kts 134°
2026-05-05 13:22 54.86636 8.20994 9048 ft 293 kts 146°
2026-05-05 13:22 54.84971 8.23031 9322 ft 293 kts 146°
2026-05-05 13:23 54.83399 8.25268 9714 ft 288 kts 141°
2026-05-05 13:23 54.81910 8.27351 10654 ft 262 kts 152°
2026-05-05 13:23 54.80335 8.28918 11181 ft 264 kts 153°
2026-05-05 13:23 54.78773 8.30650 11648 ft 268 kts 150°
2026-05-05 13:24 54.77214 8.32439 12120 ft 269 kts 151°
2026-05-05 13:24 54.75622 8.34160 12582 ft 271 kts 153°
2026-05-05 13:24 54.74016 8.35896 13033 ft 273 kts 152°
2026-05-05 13:24 54.72402 8.37658 13472 ft 275 kts 152°
2026-05-05 13:25 54.70775 8.39429 13880 ft 277 kts 152°
2026-05-05 13:25 54.69150 8.41256 14260 ft 280 kts 147°
2026-05-05 13:25 54.67960 8.43979 14609 ft 292 kts 117°
2026-05-05 13:25 54.67214 8.47203 14942 ft 295 kts 114°
2026-05-05 13:26 54.66432 8.50570 14956 ft 308 kts 115°
2026-05-05 13:26 54.65609 8.54060 14963 ft 318 kts 115°
2026-05-05 13:26 54.64763 8.57655 14969 ft 326 kts 115°
2026-05-05 13:26 54.63900 8.61312 14967 ft 332 kts 115°
2026-05-05 13:27 54.63019 8.65021 14951 ft 336 kts 115°
2026-05-05 13:27 54.62127 8.68756 14953 ft 338 kts 115°
2026-05-05 13:27 54.60874 8.72133 14936 ft 333 kts 137°
2026-05-05 13:27 54.59177 8.74843 14941 ft 333 kts 141°
2026-05-05 13:28 54.57524 8.77666 14946 ft 336 kts 136°
2026-05-05 13:28 54.55944 8.80643 14947 ft 337 kts 136°
2026-05-05 13:28 54.54311 8.83532 14942 ft 336 kts 139°
2026-05-05 13:28 54.52628 8.86324 14943 ft 337 kts 139°
2026-05-05 13:29 54.50980 8.89197 14943 ft 338 kts 137°
2026-05-05 13:29 54.49357 8.92135 14943 ft 338 kts 137°
2026-05-05 13:29 54.47705 8.95007 14943 ft 338 kts 139°
2026-05-05 13:29 54.46032 8.97842 14943 ft 338 kts 139°
2026-05-05 13:30 54.44382 9.00723 14941 ft 338 kts 137°
2026-05-05 13:30 54.42761 9.03595 14942 ft 338 kts 138°
2026-05-05 13:30 54.41099 9.06460 14923 ft 338 kts 139°
2026-05-05 13:30 54.39426 9.09309 14932 ft 338 kts 138°
2026-05-05 13:31 54.37777 9.12210 14928 ft 339 kts 136°
2026-05-05 13:31 54.36518 9.15648 14924 ft 346 kts 112°
2026-05-05 13:31 54.35873 9.19626 14929 ft 347 kts 107°
2026-05-05 13:31 54.35121 9.23552 14929 ft 346 kts 112°
2026-05-05 13:32 54.34269 9.27406 14932 ft 346 kts 112°
2026-05-05 13:32 54.33518 9.31327 14933 ft 347 kts 109°
2026-05-05 13:32 54.32821 9.35286 14933 ft 347 kts 109°
2026-05-05 13:32 54.32054 9.39150 14933 ft 346 kts 112°
2026-05-05 13:33 54.31243 9.43030 14934 ft 347 kts 111°
2026-05-05 13:33 54.30488 9.46951 14934 ft 347 kts 110°
2026-05-05 13:33 54.29752 9.50890 14933 ft 347 kts 110°
2026-05-05 13:33 54.28969 9.54795 14933 ft 347 kts 111°
2026-05-05 13:34 54.28173 9.58693 14936 ft 347 kts 111°
2026-05-05 13:34 54.27413 9.62613 14931 ft 347 kts 110°
2026-05-05 13:34 54.26658 9.66530 14932 ft 346 kts 111°
2026-05-05 13:34 54.25870 9.70425 14932 ft 346 kts 111°
2026-05-05 13:35 54.25081 9.74320 14932 ft 346 kts 111°
2026-05-05 13:35 54.24217 9.78150 14925 ft 343 kts 121°
2026-05-05 13:35 54.22729 9.81265 14930 ft 338 kts 138°
2026-05-05 13:35 54.21104 9.84161 14931 ft 339 kts 135°
2026-05-05 13:36 54.19581 9.87261 14936 ft 340 kts 132°
2026-05-05 13:36 54.18065 9.90354 14948 ft 338 kts 135°
2026-05-05 13:36 54.16478 9.93286 14947 ft 335 kts 137°
2026-05-05 13:36 54.14928 9.96172 14946 ft 334 kts 135°
2026-05-05 13:37 54.13412 9.99193 14731 ft 335 kts 134°
2026-05-05 13:37 54.11919 10.02147 14341 ft 324 kts 135°
2026-05-05 13:37 54.10420 10.04959 13953 ft 317 kts 136°
2026-05-05 13:37 54.08958 10.07718 13542 ft 311 kts 135°
2026-05-05 13:38 54.07542 10.10476 13137 ft 305 kts 136°
2026-05-05 13:38 54.05853 10.12481 12697 ft 293 kts 164°
2026-05-05 13:38 54.03887 10.12641 12265 ft 280 kts 197°
2026-05-05 13:38 54.02735 10.11738 11991 ft 274 kts 217°
2026-05-05 13:39 54.01394 10.09499 11620 ft 268 kts 230°
2026-05-05 13:39 54.00108 10.07233 11263 ft 266 kts 224°
2026-05-05 13:39 53.98642 10.05320 10905 ft 265 kts 215°
2026-05-05 13:39 53.97069 10.03692 10538 ft 265 kts 213°
2026-05-05 13:40 53.95524 10.02003 10177 ft 263 kts 216°
2026-05-05 13:40 53.94012 10.00234 9935 ft 263 kts 216°
2026-05-05 13:40 53.92502 9.98536 9930 ft 259 kts 215°
2026-05-05 13:40 53.91006 9.96843 9927 ft 258 kts 216°
2026-05-05 13:41 53.89518 9.95146 9929 ft 257 kts 216°
2026-05-05 13:41 53.88032 9.93473 9928 ft 256 kts 216°
2026-05-05 13:41 53.86553 9.91794 9926 ft 256 kts 216°
2026-05-05 13:41 53.85069 9.90126 9914 ft 256 kts 216°
2026-05-05 13:42 53.83576 9.88436 9530 ft 267 kts 216°
2026-05-05 13:42 53.82001 9.86663 9139 ft 275 kts 215°
2026-05-05 13:42 53.80389 9.84848 8748 ft 281 kts 215°
2026-05-05 13:42 53.78753 9.82997 8362 ft 284 kts 215°
2026-05-05 13:43 53.77096 9.81147 7978 ft 285 kts 215°
2026-05-05 13:43 53.75452 9.79290 7604 ft 280 kts 216°
2026-05-05 13:43 53.73871 9.77474 7228 ft 270 kts 216°
2026-05-05 13:43 53.72318 9.75744 6854 ft 264 kts 215°
2026-05-05 13:44 53.70794 9.74054 6490 ft 261 kts 215°
2026-05-05 13:44 53.69307 9.72386 6042 ft 259 kts 215°
2026-05-05 13:44 53.67806 9.70690 5479 ft 255 kts 215°
2026-05-05 13:44 53.66351 9.69057 4857 ft 253 kts 215°
2026-05-05 13:45 53.64882 9.67429 4212 ft 252 kts 214°
2026-05-05 13:45 53.63453 9.65840 3836 ft 242 kts 214°
2026-05-05 13:45 53.62024 9.64241 3059 ft 248 kts 214°
2026-05-05 13:45 53.60506 9.62847 2299 ft 249 kts 195°
2026-05-05 13:46 53.58871 9.63065 2023 ft 230 kts 152°
2026-05-05 13:46 53.57646 9.64688 2022 ft 220 kts 134°
2026-05-05 13:46 53.56533 9.66423 2023 ft 222 kts 134°
2026-05-05 13:46 53.55396 9.68243 2029 ft 230 kts 133°
2026-05-05 13:47 53.54222 9.70118 2037 ft 235 kts 133°
2026-05-05 13:47 53.53058 9.72045 2037 ft 231 kts 127°
2026-05-05 13:47 53.52514 9.74474 2022 ft 223 kts 91°
2026-05-05 13:47 53.52600 9.76979 2022 ft 212 kts 83°
2026-05-05 13:48 53.53163 9.79176 2025 ft 207 kts 47°
2026-05-05 13:48 53.54184 9.80900 2024 ft 209 kts 49°
2026-05-05 13:48 53.55095 9.82827 2025 ft 211 kts 51°
2026-05-05 13:48 53.56039 9.84702 1939 ft 212 kts 49°
2026-05-05 13:49 53.56968 9.86570 1660 ft 201 kts 51°
2026-05-05 13:49 53.57785 9.88223 1408 ft 162 kts 50°
2026-05-05 13:49 53.58444 9.89570 1192 ft 137 kts 50°
2026-05-05 13:49 53.58996 9.90658 991 ft 114 kts 49°
2026-05-05 13:50 53.59489 9.91667 833 ft 112 kts 49°
2026-05-05 13:50 53.60007 9.92687 679 ft 116 kts 50°
2026-05-05 13:50 53.60508 9.93726 524 ft 112 kts 50°
2026-05-05 13:50 53.61029 9.94745 379 ft 119 kts 49°
2026-05-05 13:51 53.61567 9.95833 222 ft 123 kts 50°
2026-05-05 13:51 53.62102 9.96927 83 ft 117 kts 50°
2026-05-05 13:51 53.62565 9.97863 35 ft 78 kts 50°
2026-05-05 13:51 53.62893 9.98533 38 ft 73 kts 50°
2026-05-05 13:52 53.63173 9.99100 41 ft 47 kts 50°
2026-05-05 13:52 53.63288 9.99396 41 ft 22 kts 77°
2026-05-05 13:52 53.63277 9.99653 42 ft 12 kts 100°
2026-05-05 13:52 53.63278 9.99759 42 ft 7 kts 68°
2026-05-05 13:53 53.63316 9.99853 42 ft 7 kts 95°
2026-05-05 13:53 53.63281 9.99909 42 ft 8 kts 142°
2026-05-05 13:53 53.63260 9.99939 42 ft 0 kts 140°